| time (UTC) | temp F | wind direction | speed MPH | gust MPH | rain 1hr in | rain 24hr in | rain mn in | humidity % | barometer mb |
| 20260505071547 | 54 | 179 | 2.0 | 4.0 | 0.00 | 0.00 | 0.00 | 91 | 1014.5 |
| 20260505070013 | 54 | 169 | 2.0 | 5.0 | 0.00 | 0.00 | 0.00 | 92 | 1014.6 |
| 20260505064537 | 54 | 172 | 0.0 | 6.0 | 0.00 | 0.00 | 0.00 | 92 | 1014.6 |
| 20260505063004 | 54 | 184 | 2.0 | 10.0 | 0.00 | 0.00 | 0.00 | 92 | 1014.6 |
| 20260505061529 | 54 | 151 | 3.0 | 7.0 | 0.00 | 0.00 | 0.00 | 92 | 1014.4 |
| 20260505060059 | 54 | 360 | 2.0 | 9.0 | 0.00 | 0.00 | 0.00 | 92 | 1014.4 |
| 20260505054523 | 54 | 178 | 2.0 | 6.0 | 0.00 | 0.00 | 0.00 | 92 | 1014.5 |
| 20260505053048 | 54 | 179 | 2.0 | 7.0 | 0.00 | 0.00 | 0.00 | 92 | 1014.4 |
| 20260505051600 | 54 | 174 | 2.0 | 7.0 | 0.00 | 0.00 | 0.00 | 93 | 1014.5 |
| 20260505041540 | 54 | 207 | 2.0 | 9.0 | 0.00 | 0.00 | 0.00 | 93 | 1013.9 |
| 20260505040043 | 54 | 186 | 0.0 | 7.0 | 0.00 | 0.00 | 0.00 | 93 | 1013.9 |
| 20260505034604 | 54 | 164 | 3.0 | 9.0 | 0.00 | 0.00 | 0.00 | 93 | 1013.6 |
| 20260505033026 | 54 | 187 | 2.0 | 11.0 | 0.00 | 0.00 | 0.00 | 93 | 1013.7 |
| 20260505031556 | 54 | 360 | 1.0 | 7.0 | 0.00 | 0.00 | 0.00 | 93 | 1013.6 |
| 20260505030016 | 54 | 222 | 2.0 | 10.0 | 0.00 | 0.00 | 0.00 | 92 | 1013.6 |
| 20260505024546 | 55 | 229 | 2.0 | 10.0 | 0.00 | 0.00 | 0.00 | 93 | 1013.5 |
| 20260505023009 | 55 | 185 | 4.0 | 12.0 | 0.00 | 0.00 | 0.00 | 92 | 1013.5 |
| 20260505021541 | 55 | 234 | 1.0 | 11.0 | 0.00 | 0.00 | 0.00 | 92 | 1013.2 |
| 20260505020003 | 55 | 202 | 4.0 | 10.0 | 0.00 | 0.00 | 0.00 | 91 | 1013.3 |
| 20260505014534 | 56 | 224 | 3.0 | 9.0 | 0.00 | 0.00 | 0.00 | 91 | 1013.3 |
| 20260505013058 | 56 | 215 | 4.0 | 13.0 | 0.00 | 0.00 | 0.00 | 90 | 1013.4 |
| 20260505011529 | 57 | 215 | 3.0 | 11.0 | 0.00 | 0.00 | 0.00 | 90 | 1013.5 |
| 20260505010049 | 57 | 360 | 6.0 | 17.0 | 0.00 | 0.00 | 0.00 | 89 | 1013.4 |
| 20260505004524 | 57 | 207 | 3.0 | 12.0 | 0.00 | 0.00 | 0.00 | 90 | 1013.6 |
| 20260505003042 | 58 | 257 | 8.0 | 16.0 | 0.00 | 0.00 | 0.00 | 88 | 1013.6 |
| 20260505001506 | 57 | 251 | 6.0 | 15.0 | 0.00 | 0.00 | 0.00 | 89 | 1013.7 |
| 20260505000040 | 57 | 192 | 7.0 | 14.0 | 0.00 | 0.00 | 0.00 | 89 | 1013.9 |
| 20260504234615 | 58 | 205 | 5.0 | 14.0 | 0.00 | 0.00 | 0.00 | 89 | 1013.9 |
| 20260504233025 | 58 | 190 | 7.0 | 19.0 | 0.00 | 0.00 | 0.00 | 88 | 1013.9 |
| 20260504231553 | 58 | 182 | 6.0 | 16.0 | 0.00 | 0.00 | 0.00 | 87 | 1014.0 |
| 20260504230019 | 59 | 164 | 3.0 | 17.0 | 0.00 | 0.00 | 0.00 | 89 | 1014.2 |
| 20260504224600 | 59 | 360 | 7.0 | 19.0 | 0.00 | 0.00 | 0.00 | 87 | 1014.1 |
| 20260504223057 | 59 | 211 | 6.0 | 13.0 | 0.00 | 0.00 | 0.00 | 86 | 1014.2 |
| 20260504221505 | 60 | 360 | 5.0 | 15.0 | 0.00 | 0.00 | 0.00 | 87 | 1014.3 |
| 20260504220032 | 59 | 225 | 6.0 | 19.0 | 0.00 | 0.00 | 0.00 | 88 | 1014.3 |
| 20260504214543 | 58 | 207 | 6.0 | 19.0 | 0.00 | 0.00 | 0.00 | 89 | 1014.1 |
| 20260504213018 | 59 | 196 | 8.0 | 16.0 | 0.00 | 0.00 | 0.00 | 87 | 1014.1 |
| 20260504211532 | 60 | 168 | 5.0 | 14.0 | 0.00 | 0.00 | 0.00 | 87 | 1014.1 |
| 20260504210058 | 59 | 197 | 8.0 | 15.0 | 0.00 | 0.00 | 0.00 | 87 | 1014.2 |
| 20260504204522 | 59 | 195 | 6.0 | 13.0 | 0.00 | 0.00 | 0.00 | 86 | 1014.3 |
| 20260504203035 | 59 | 155 | 6.0 | 16.0 | 0.00 | 0.00 | 0.00 | 86 | 1014.1 |
| 20260504201559 | 59 | 184 | 8.0 | 19.0 | 0.00 | 0.00 | 0.00 | 86 | 1014.1 |
| 20260504200020 | 59 | 360 | 9.0 | 19.0 | 0.00 | 0.00 | 0.00 | 85 | 1014.2 |
| 20260504194600 | 59 | 229 | 10.0 | 19.0 | 0.00 | 0.00 | 0.00 | 87 | 1014.2 |
| 20260504193010 | 59 | 260 | 6.0 | 18.0 | 0.00 | 0.00 | 0.00 | 87 | 1014.2 |
| 20260504191539 | 59 | 206 | 6.0 | 19.0 | 0.00 | 0.00 | 0.00 | 87 | 1014.3 |
| 20260504190002 | 58 | 226 | 6.0 | 16.0 | 0.00 | 0.00 | 0.00 | 87 | 1014.2 |
| 20260504184532 | 59 | 219 | 4.0 | 11.0 | 0.00 | 0.00 | 0.00 | 87 | 1014.1 |
| 20260504183058 | 59 | 157 | 4.0 | 11.0 | 0.00 | 0.00 | 0.00 | 87 | 1014.3 |
| 20260504181523 | 58 | 161 | 6.0 | 11.0 | 0.00 | 0.00 | 0.00 | 88 | 1014.2 |
| 20260504180052 | 58 | 217 | 4.0 | 13.0 | 0.00 | 0.00 | 0.00 | 89 | 1014.1 |
| 20260504174617 | 56 | 172 | 6.0 | 15.0 | 0.00 | 0.00 | 0.00 | 90 | 1014.1 |
| 20260504173036 | 58 | 219 | 6.0 | 11.0 | 0.00 | 0.00 | 0.00 | 89 | 1014.3 |
| 20260504171540 | 56 | 170 | 4.0 | 9.0 | 0.00 | 0.00 | 0.00 | 92 | 1014.0 |
| 20260504081556 | 53 | 152 | 7.0 | 16.0 | 0.00 | 0.00 | 0.00 | 94 | 1012.9 |